AFR19HU EGPH-LFPG

Flight info

Callsign AFR19HU
Flight time 1h 24m
Altitude 35000
Route GOSAM P600 FENIK L612 ELBUS DCT WOD UM605 BIBAX
Aircraft E190/M-SDE2E3FGIJ1RWY/HB1

Departure

Time 2026-05-08 09:29
Airport Edinburgh Airport (EGPH)

Arrival

Time 2026-05-08 10:54
Airport Charles de Gaulle International Airport (LFPG)
Time Latitude Longitude Altitude Speed Heading
2026-05-08 09:15 55.94742 -3.36876 115 ft 0 kts 269°
2026-05-08 09:22 55.94716 -3.36735 113 ft 1 kts 356°
2026-05-08 09:24 55.94718 -3.36735 115 ft 1 kts 356°
2026-05-08 09:24 55.94736 -3.36738 114 ft 3 kts 352°
2026-05-08 09:24 55.94753 -3.36749 115 ft 5 kts 335°
2026-05-08 09:25 55.94790 -3.36776 114 ft 7 kts 348°
2026-05-08 09:25 55.94843 -3.36779 115 ft 9 kts 358°
2026-05-08 09:25 55.94903 -3.36814 114 ft 10 kts 328°
2026-05-08 09:25 55.94964 -3.36782 115 ft 11 kts 54°
2026-05-08 09:26 55.95007 -3.36656 114 ft 13 kts 59°
2026-05-08 09:26 55.95056 -3.36512 113 ft 14 kts 59°
2026-05-08 09:26 55.95111 -3.36349 114 ft 16 kts 58°
2026-05-08 09:26 55.95171 -3.36174 115 ft 17 kts 59°
2026-05-08 09:27 55.95232 -3.35989 115 ft 18 kts 59°
2026-05-08 09:27 55.95298 -3.35798 115 ft 18 kts 58°
2026-05-08 09:27 55.95367 -3.35598 114 ft 19 kts 58°
2026-05-08 09:27 55.95430 -3.35420 115 ft 12 kts 44°
2026-05-08 09:28 55.95504 -3.35444 113 ft 12 kts 328°
2026-05-08 09:28 55.95572 -3.35533 112 ft 11 kts 296°
2026-05-08 09:28 55.95543 -3.35648 112 ft 12 kts 238°
2026-05-08 09:28 55.95427 -3.35992 110 ft 62 kts 239°
2026-05-08 09:29 55.95088 -3.36989 112 ft 124 kts 239°
2026-05-08 09:29 55.94565 -3.38563 262 ft 165 kts 241°
2026-05-08 09:29 55.93954 -3.40412 841 ft 179 kts 239°
2026-05-08 09:29 55.93301 -3.42269 1226 ft 182 kts 238°
2026-05-08 09:30 55.92619 -3.44184 1816 ft 186 kts 239°
2026-05-08 09:30 55.91926 -3.46179 2310 ft 198 kts 240°
2026-05-08 09:30 55.91166 -3.48347 2778 ft 213 kts 238°
2026-05-08 09:30 55.90510 -3.50718 3474 ft 215 kts 254°
2026-05-08 09:31 55.90199 -3.53395 3965 ft 229 kts 258°
2026-05-08 09:31 55.89909 -3.56229 4412 ft 242 kts 258°
2026-05-08 09:31 55.89608 -3.59225 5033 ft 248 kts 258°
2026-05-08 09:31 55.89311 -3.62245 5776 ft 248 kts 258°
2026-05-08 09:32 55.89012 -3.65285 6216 ft 254 kts 258°
2026-05-08 09:32 55.88704 -3.68386 6199 ft 252 kts 257°
2026-05-08 09:32 55.88403 -3.71384 6119 ft 242 kts 258°
2026-05-08 09:32 55.88106 -3.74325 6022 ft 241 kts 258°
2026-05-08 09:33 55.87807 -3.77271 6041 ft 244 kts 257°
2026-05-08 09:33 55.87501 -3.80269 6048 ft 247 kts 257°
2026-05-08 09:33 55.87203 -3.83286 6045 ft 248 kts 258°
2026-05-08 09:33 55.86904 -3.86317 6041 ft 248 kts 258°
2026-05-08 09:34 55.86606 -3.89343 6061 ft 249 kts 258°
2026-05-08 09:34 55.86303 -3.92383 6056 ft 249 kts 257°
2026-05-08 09:34 55.85994 -3.95417 6051 ft 248 kts 258°
2026-05-08 09:34 55.85689 -3.98443 6052 ft 249 kts 258°
2026-05-08 09:35 55.85384 -4.01481 6056 ft 250 kts 258°
2026-05-08 09:35 55.85078 -4.04521 6058 ft 249 kts 258°
2026-05-08 09:35 55.84772 -4.07552 6059 ft 249 kts 257°
2026-05-08 09:35 55.84152 -4.10377 6077 ft 247 kts 234°
2026-05-08 09:36 55.83005 -4.12651 6110 ft 248 kts 226°
2026-05-08 09:36 55.81797 -4.14859 6053 ft 248 kts 226°
2026-05-08 09:36 55.80592 -4.17044 6057 ft 247 kts 226°
2026-05-08 09:36 55.79380 -4.19215 6484 ft 248 kts 226°
2026-05-08 09:37 55.78070 -4.21212 7078 ft 249 kts 217°
2026-05-08 09:37 55.76620 -4.22926 7639 ft 252 kts 214°
2026-05-08 09:37 55.75155 -4.24652 8162 ft 254 kts 216°
2026-05-08 09:37 55.73693 -4.26441 8701 ft 256 kts 214°
2026-05-08 09:38 55.72050 -4.27680 9203 ft 262 kts 193°
2026-05-08 09:38 55.70207 -4.27567 9754 ft 270 kts 169°
2026-05-08 09:38 55.68462 -4.26225 10306 ft 277 kts 157°
2026-05-08 09:38 55.66766 -4.24560 10832 ft 280 kts 154°
2026-05-08 09:39 55.65075 -4.22796 11350 ft 283 kts 155°
2026-05-08 09:39 55.63345 -4.21100 11882 ft 285 kts 156°
2026-05-08 09:39 55.61599 -4.19405 12417 ft 288 kts 156°
2026-05-08 09:39 55.59836 -4.17684 12970 ft 291 kts 156°
2026-05-08 09:40 55.58061 -4.15946 13497 ft 293 kts 156°
2026-05-08 09:40 55.56266 -4.14189 14025 ft 296 kts 156°
2026-05-08 09:40 55.54456 -4.12418 14538 ft 298 kts 156°
2026-05-08 09:40 55.52633 -4.10634 15047 ft 300 kts 156°
2026-05-08 09:41 55.50799 -4.08843 15546 ft 302 kts 156°
2026-05-08 09:41 55.48950 -4.07040 16047 ft 304 kts 157°
2026-05-08 09:41 55.47060 -4.05353 16532 ft 306 kts 159°
2026-05-08 09:41 55.45142 -4.03693 17027 ft 308 kts 159°
2026-05-08 09:42 55.43215 -4.02013 17547 ft 310 kts 159°
2026-05-08 09:42 55.41276 -4.00316 18090 ft 313 kts 159°
2026-05-08 09:42 55.39323 -3.98606 18606 ft 315 kts 159°
2026-05-08 09:42 55.37356 -3.96880 19083 ft 317 kts 159°
2026-05-08 09:43 55.35373 -3.95146 19541 ft 319 kts 159°
2026-05-08 09:43 55.33378 -3.93399 20011 ft 321 kts 159°
2026-05-08 09:43 55.31371 -3.91644 20466 ft 324 kts 159°
2026-05-08 09:43 55.29374 -3.89897 20897 ft 326 kts 160°
2026-05-08 09:44 55.27335 -3.88119 21357 ft 328 kts 160°
2026-05-08 09:44 55.25258 -3.86303 21827 ft 331 kts 160°
2026-05-08 09:44 55.23214 -3.84523 22215 ft 334 kts 159°
2026-05-08 09:44 55.21125 -3.82707 22668 ft 337 kts 159°
2026-05-08 09:45 55.19014 -3.80871 23056 ft 340 kts 159°
2026-05-08 09:45 55.16885 -3.79022 23529 ft 343 kts 159°
2026-05-08 09:45 55.14744 -3.77163 23918 ft 345 kts 159°
2026-05-08 09:45 55.12581 -3.75286 24262 ft 348 kts 160°
2026-05-08 09:46 55.10401 -3.73400 24625 ft 351 kts 160°
2026-05-08 09:46 55.08208 -3.71502 24990 ft 353 kts 160°
2026-05-08 09:46 55.05998 -3.69593 25332 ft 356 kts 160°
2026-05-08 09:46 55.03775 -3.67676 25667 ft 358 kts 160°
2026-05-08 09:47 55.01533 -3.65744 25960 ft 360 kts 160°
2026-05-08 09:47 54.99279 -3.63803 26279 ft 363 kts 160°
2026-05-08 09:47 54.97009 -3.61851 26578 ft 365 kts 160°
2026-05-08 09:47 54.94725 -3.59892 26836 ft 368 kts 160°
2026-05-08 09:48 54.92418 -3.57915 27101 ft 371 kts 160°
2026-05-08 09:48 54.90097 -3.55928 27404 ft 373 kts 160°
2026-05-08 09:48 54.87760 -3.53927 27698 ft 375 kts 160°
2026-05-08 09:48 54.85413 -3.51922 27995 ft 377 kts 160°
2026-05-08 09:49 54.83050 -3.49906 28270 ft 380 kts 160°
2026-05-08 09:49 54.80672 -3.47881 28572 ft 382 kts 160°
2026-05-08 09:49 54.78281 -3.45845 28852 ft 384 kts 160°
2026-05-08 09:49 54.75880 -3.43804 29124 ft 386 kts 160°
2026-05-08 09:50 54.73462 -3.41752 29385 ft 388 kts 160°
2026-05-08 09:50 54.71031 -3.39691 29640 ft 390 kts 160°
2026-05-08 09:50 54.68580 -3.37618 29834 ft 393 kts 160°
2026-05-08 09:50 54.66146 -3.35560 30081 ft 396 kts 160°
2026-05-08 09:51 54.63669 -3.33466 30306 ft 397 kts 160°
2026-05-08 09:51 54.61179 -3.31366 30512 ft 399 kts 160°
2026-05-08 09:51 54.58680 -3.29260 30735 ft 401 kts 160°
2026-05-08 09:51 54.56169 -3.27148 30935 ft 403 kts 160°
2026-05-08 09:52 54.53647 -3.25031 31132 ft 404 kts 160°
2026-05-08 09:52 54.51112 -3.22906 31338 ft 406 kts 160°
2026-05-08 09:52 54.48567 -3.20773 31483 ft 408 kts 160°
2026-05-08 09:52 54.46009 -3.18633 31641 ft 410 kts 160°
2026-05-08 09:53 54.43432 -3.16478 31746 ft 413 kts 160°
2026-05-08 09:53 54.40844 -3.14324 31918 ft 414 kts 160°
2026-05-08 09:53 54.38241 -3.12157 32097 ft 416 kts 160°
2026-05-08 09:53 54.35629 -3.09985 32259 ft 418 kts 160°
2026-05-08 09:54 54.33010 -3.07807 32452 ft 420 kts 160°
2026-05-08 09:54 54.30374 -3.05623 32634 ft 421 kts 160°
2026-05-08 09:54 54.27734 -3.03436 32801 ft 423 kts 160°
2026-05-08 09:54 54.25080 -3.01240 32953 ft 424 kts 160°
2026-05-08 09:55 54.22414 -2.99038 33121 ft 426 kts 160°
2026-05-08 09:55 54.19741 -2.96833 33224 ft 428 kts 160°
2026-05-08 09:55 54.17054 -2.94619 33370 ft 430 kts 160°
2026-05-08 09:55 54.14359 -2.92401 33521 ft 431 kts 160°
2026-05-08 09:56 54.11655 -2.90180 33669 ft 432 kts 160°
2026-05-08 09:56 54.08940 -2.87953 33809 ft 434 kts 160°
2026-05-08 09:56 54.06221 -2.85725 33957 ft 435 kts 160°
2026-05-08 09:56 54.03490 -2.83495 34089 ft 436 kts 161°
2026-05-08 09:57 53.98005 -2.79020 34376 ft 438 kts 160°
2026-05-08 09:57 53.95262 -2.76784 34503 ft 438 kts 160°
2026-05-08 09:57 53.92511 -2.74545 34653 ft 439 kts 160°
2026-05-08 09:58 53.89752 -2.72310 34797 ft 440 kts 160°
2026-05-08 09:58 53.86991 -2.70069 34952 ft 440 kts 160°
2026-05-08 09:58 53.84252 -2.67844 35239 ft 437 kts 160°
2026-05-08 09:58 53.81497 -2.65614 35231 ft 442 kts 160°
2026-05-08 09:59 53.78700 -2.63358 35127 ft 449 kts 160°
2026-05-08 09:59 53.75893 -2.61104 35076 ft 454 kts 160°
2026-05-08 09:59 53.70134 -2.56474 35055 ft 463 kts 159°
2026-05-08 10:00 53.64262 -2.51784 35086 ft 470 kts 159°
2026-05-08 10:00 53.58315 -2.47039 35084 ft 475 kts 159°
2026-05-08 10:01 53.52348 -2.42284 35078 ft 475 kts 159°
2026-05-08 10:01 53.46374 -2.37545 35080 ft 475 kts 159°
2026-05-08 10:02 53.40400 -2.32812 35101 ft 475 kts 159°
2026-05-08 10:02 53.34422 -2.28101 35106 ft 475 kts 159°
2026-05-08 10:03 53.28448 -2.23388 35105 ft 475 kts 159°
2026-05-08 10:03 53.22464 -2.18693 35100 ft 475 kts 159°
2026-05-08 10:04 53.16482 -2.13992 35100 ft 475 kts 159°
2026-05-08 10:04 53.10492 -2.09311 35098 ft 475 kts 159°
2026-05-08 10:05 53.04496 -2.04659 35096 ft 475 kts 159°
2026-05-08 10:05 52.98504 -1.99987 35079 ft 477 kts 159°
2026-05-08 10:06 52.92474 -1.95350 35093 ft 479 kts 159°
2026-05-08 10:06 52.86429 -1.90666 35088 ft 480 kts 158°
2026-05-08 10:07 52.80384 -1.85989 35092 ft 480 kts 158°
2026-05-08 10:07 52.74334 -1.81319 35075 ft 480 kts 158°
2026-05-08 10:08 52.68267 -1.76697 35098 ft 481 kts 158°
2026-05-08 10:08 52.62193 -1.72074 35100 ft 481 kts 159°
2026-05-08 10:09 52.56114 -1.67481 35100 ft 481 kts 158°
2026-05-08 10:09 52.50039 -1.62867 35104 ft 481 kts 158°
2026-05-08 10:10 52.43956 -1.58276 35099 ft 482 kts 158°
2026-05-08 10:10 52.37873 -1.53675 35101 ft 482 kts 158°
2026-05-08 10:11 52.32807 -1.49883 35100 ft 481 kts 159°
2026-05-08 10:11 52.26723 -1.45364 35086 ft 480 kts 158°
2026-05-08 10:12 52.20634 -1.40832 35108 ft 481 kts 158°
2026-05-08 10:12 52.14545 -1.36286 35104 ft 482 kts 158°
2026-05-08 10:13 52.08446 -1.31781 35100 ft 482 kts 158°
2026-05-08 10:13 52.02345 -1.27271 35079 ft 482 kts 158°
2026-05-08 10:14 51.96231 -1.22764 35077 ft 483 kts 158°
2026-05-08 10:14 51.90114 -1.18284 35076 ft 482 kts 158°
2026-05-08 10:15 51.83997 -1.13803 35077 ft 483 kts 158°
2026-05-08 10:15 51.77881 -1.09331 35085 ft 483 kts 158°
2026-05-08 10:16 51.71788 -1.04898 35078 ft 484 kts 158°
2026-05-08 10:16 51.65653 -1.00435 35078 ft 484 kts 158°
2026-05-08 10:17 51.59517 -0.95989 35088 ft 483 kts 158°
2026-05-08 10:17 51.53423 -0.91666 35091 ft 478 kts 158°
2026-05-08 10:18 51.47331 -0.87328 35091 ft 479 kts 158°
2026-05-08 10:18 51.44445 -0.84652 35110 ft 482 kts 144°
2026-05-08 10:18 51.41845 -0.81250 35127 ft 483 kts 139°
2026-05-08 10:19 51.36866 -0.74008 35087 ft 483 kts 138°
2026-05-08 10:20 51.29422 -0.63270 35051 ft 477 kts 139°
2026-05-08 10:20 51.24466 -0.56184 35083 ft 478 kts 139°
2026-05-08 10:21 51.19503 -0.49114 35099 ft 479 kts 139°
2026-05-08 10:21 51.14534 -0.42054 35100 ft 478 kts 139°
2026-05-08 10:22 51.09560 -0.35009 35106 ft 479 kts 139°
2026-05-08 10:22 51.05422 -0.29163 35105 ft 479 kts 139°
2026-05-08 10:23 51.00967 -0.22884 35098 ft 479 kts 139°
2026-05-08 10:23 50.95978 -0.15877 35079 ft 479 kts 139°
2026-05-08 10:24 50.90987 -0.08886 35078 ft 479 kts 139°
2026-05-08 10:24 50.86021 -0.01949 35083 ft 480 kts 139°
2026-05-08 10:25 50.81062 0.04957 35091 ft 471 kts 140°
2026-05-08 10:25 50.76129 0.11805 35101 ft 473 kts 140°
2026-05-08 10:26 50.71081 0.18469 35098 ft 473 kts 142°
2026-05-08 10:26 50.65991 0.25043 35096 ft 473 kts 142°
2026-05-08 10:27 50.60911 0.31621 35098 ft 467 kts 142°
2026-05-08 10:27 50.58477 0.34772 34811 ft 454 kts 142°
2026-05-08 10:27 50.56042 0.37887 34368 ft 446 kts 142°
2026-05-08 10:27 50.53656 0.40890 34154 ft 432 kts 142°
2026-05-08 10:28 50.51342 0.43798 33925 ft 420 kts 142°
2026-05-08 10:28 50.49086 0.46632 33666 ft 412 kts 143°
2026-05-08 10:28 50.46861 0.49428 33412 ft 408 kts 143°
2026-05-08 10:29 50.42439 0.55005 32992 ft 417 kts 143°
2026-05-08 10:29 50.40166 0.57869 32421 ft 419 kts 143°
2026-05-08 10:29 50.37895 0.60727 31805 ft 419 kts 143°
2026-05-08 10:29 50.35627 0.63579 31236 ft 417 kts 143°
2026-05-08 10:30 50.33377 0.66405 30665 ft 413 kts 143°
2026-05-08 10:30 50.31141 0.69210 30112 ft 409 kts 143°
2026-05-08 10:30 50.28931 0.71979 29561 ft 404 kts 143°
2026-05-08 10:30 50.26738 0.74721 29031 ft 404 kts 143°
2026-05-08 10:31 50.24536 0.77473 28514 ft 406 kts 143°
2026-05-08 10:31 50.22319 0.80238 27951 ft 409 kts 143°
2026-05-08 10:31 50.20097 0.83008 27413 ft 408 kts 143°
2026-05-08 10:31 50.17880 0.85770 26859 ft 406 kts 143°
2026-05-08 10:32 50.15684 0.88497 26325 ft 402 kts 143°
2026-05-08 10:32 50.13508 0.91200 25793 ft 397 kts 143°
2026-05-08 10:32 50.11363 0.93863 25299 ft 391 kts 143°
2026-05-08 10:32 50.09246 0.96484 24753 ft 387 kts 143°
2026-05-08 10:33 50.07149 0.99079 24264 ft 383 kts 143°
2026-05-08 10:33 50.05001 1.01459 23822 ft 377 kts 152°
2026-05-08 10:33 50.02674 1.03309 23342 ft 375 kts 157°
2026-05-08 10:33 50.00322 1.05002 22971 ft 372 kts 157°
2026-05-08 10:34 49.97983 1.06708 22562 ft 371 kts 156°
2026-05-08 10:34 49.95658 1.08430 22132 ft 370 kts 156°
2026-05-08 10:34 49.93349 1.10154 21733 ft 367 kts 156°
2026-05-08 10:34 49.91055 1.11870 21334 ft 365 kts 156°
2026-05-08 10:35 49.88772 1.13578 20930 ft 363 kts 156°
2026-05-08 10:35 49.86503 1.15275 20522 ft 361 kts 156°
2026-05-08 10:35 49.84244 1.16964 20122 ft 360 kts 156°
2026-05-08 10:35 49.81995 1.18644 19724 ft 357 kts 156°
2026-05-08 10:36 49.79763 1.20308 19332 ft 356 kts 156°
2026-05-08 10:36 49.77535 1.21966 18947 ft 354 kts 156°
2026-05-08 10:36 49.75324 1.23616 18565 ft 352 kts 156°
2026-05-08 10:36 49.73122 1.25257 18148 ft 350 kts 156°
2026-05-08 10:37 49.70933 1.26885 17806 ft 348 kts 156°
2026-05-08 10:37 49.68750 1.28506 17391 ft 348 kts 156°
2026-05-08 10:37 49.66579 1.30117 17019 ft 346 kts 156°
2026-05-08 10:37 49.64413 1.31721 16649 ft 344 kts 156°
2026-05-08 10:38 49.62255 1.33321 16280 ft 346 kts 156°
2026-05-08 10:38 49.60076 1.34933 15877 ft 348 kts 156°
2026-05-08 10:38 49.57901 1.36542 15518 ft 346 kts 156°
2026-05-08 10:38 49.55735 1.38140 15136 ft 344 kts 156°
2026-05-08 10:39 49.53579 1.39729 14754 ft 342 kts 156°
2026-05-08 10:39 49.51464 1.41288 14389 ft 341 kts 156°
2026-05-08 10:39 49.49306 1.42879 14029 ft 339 kts 156°
2026-05-08 10:39 49.47212 1.44425 13622 ft 337 kts 156°
2026-05-08 10:40 49.45233 1.46317 13308 ft 335 kts 143°
2026-05-08 10:40 49.43507 1.48723 13094 ft 335 kts 136°
2026-05-08 10:40 49.41845 1.51233 12843 ft 336 kts 137°
2026-05-08 10:40 49.40163 1.53719 12565 ft 335 kts 138°
2026-05-08 10:41 49.38475 1.56158 12299 ft 333 kts 138°
2026-05-08 10:41 49.36785 1.58583 12039 ft 331 kts 138°
2026-05-08 10:41 49.35101 1.60988 11779 ft 330 kts 137°
2026-05-08 10:41 49.33421 1.63382 11525 ft 329 kts 137°
2026-05-08 10:42 49.31750 1.65764 11268 ft 328 kts 137°
2026-05-08 10:42 49.30082 1.68135 11012 ft 326 kts 137°
2026-05-08 10:42 49.28425 1.70491 10768 ft 324 kts 137°
2026-05-08 10:42 49.26773 1.72832 10518 ft 323 kts 137°
2026-05-08 10:43 49.25126 1.75161 10273 ft 321 kts 137°
2026-05-08 10:43 49.23487 1.77476 10027 ft 320 kts 136°
2026-05-08 10:43 49.21845 1.79791 9781 ft 321 kts 136°
2026-05-08 10:43 49.20206 1.82103 9507 ft 320 kts 136°
2026-05-08 10:44 49.18577 1.84405 9237 ft 319 kts 136°
2026-05-08 10:44 49.16948 1.86702 8972 ft 318 kts 136°
2026-05-08 10:44 49.15326 1.88977 8901 ft 313 kts 136°
2026-05-08 10:44 49.13720 1.91227 9013 ft 316 kts 137°
2026-05-08 10:45 49.12082 1.93522 8690 ft 320 kts 136°
2026-05-08 10:45 49.10442 1.95811 8364 ft 318 kts 136°
2026-05-08 10:45 49.08819 1.98081 8037 ft 315 kts 136°
2026-05-08 10:45 49.07218 2.00309 7714 ft 306 kts 136°
2026-05-08 10:46 49.05675 2.02458 7354 ft 295 kts 137°
2026-05-08 10:46 49.04179 2.04533 6988 ft 286 kts 137°
2026-05-08 10:46 49.02738 2.06528 6625 ft 275 kts 138°
2026-05-08 10:46 49.01346 2.08452 6272 ft 265 kts 137°
2026-05-08 10:47 49.00008 2.10303 5930 ft 256 kts 137°
2026-05-08 10:47 48.98713 2.12095 5603 ft 247 kts 135°
2026-05-08 10:47 48.97773 2.14208 5250 ft 239 kts 109°
2026-05-08 10:47 48.97310 2.16583 4982 ft 230 kts 105°
2026-05-08 10:48 48.97160 2.18881 5005 ft 215 kts 83°
2026-05-08 10:48 48.97379 2.21143 5042 ft 218 kts 82°
2026-05-08 10:48 48.97487 2.23486 4726 ft 227 kts 88°
2026-05-08 10:48 48.97574 2.25889 4332 ft 225 kts 84°
2026-05-08 10:49 48.97733 2.28215 4029 ft 217 kts 83°
2026-05-08 10:49 48.97864 2.30439 3745 ft 210 kts 85°
2026-05-08 10:49 48.97972 2.32615 3469 ft 202 kts 85°
2026-05-08 10:49 48.98093 2.34702 3198 ft 194 kts 84°
2026-05-08 10:50 48.98207 2.36707 2939 ft 187 kts 84°
2026-05-08 10:50 48.98310 2.38648 2687 ft 182 kts 85°
2026-05-08 10:50 48.98417 2.40543 2446 ft 178 kts 84°
2026-05-08 10:50 48.98522 2.42421 2197 ft 171 kts 85°
2026-05-08 10:51 48.98618 2.44174 2001 ft 165 kts 85°
2026-05-08 10:51 48.98709 2.45849 1757 ft 149 kts 86°
2026-05-08 10:51 48.98792 2.47343 1581 ft 135 kts 85°
2026-05-08 10:51 48.98867 2.48711 1396 ft 128 kts 85°
2026-05-08 10:52 48.98939 2.50035 1226 ft 124 kts 84°
2026-05-08 10:52 48.99011 2.51315 1049 ft 121 kts 85°
2026-05-08 10:52 48.99089 2.52576 946 ft 122 kts 84°
2026-05-08 10:52 48.99156 2.53857 773 ft 121 kts 85°
2026-05-08 10:53 48.99219 2.55129 587 ft 122 kts 84°
2026-05-08 10:53 48.99288 2.56435 413 ft 125 kts 85°
2026-05-08 10:53 48.99354 2.57664 359 ft 101 kts 86°
2026-05-08 10:53 48.99394 2.58478 352 ft 59 kts 85°
2026-05-08 10:54 48.99426 2.59041 350 ft 41 kts 82°
2026-05-08 10:54 48.99515 2.59415 357 ft 29 kts 65°
2026-05-08 10:54 48.99579 2.59624 358 ft 20 kts 64°
2026-05-08 10:54 48.99699 2.59686 353 ft 20 kts 355°
2026-05-08 10:55 48.99838 2.59669 352 ft 20 kts 355°
2026-05-08 10:55 48.99981 2.59652 353 ft 21 kts 355°
2026-05-08 10:55 49.00124 2.59635 353 ft 20 kts 355°
2026-05-08 10:55 49.00221 2.59624 353 ft 0 kts 356°
2026-05-08 10:56 49.00228 2.59623 353 ft 1 kts 356°
2026-05-08 10:56 49.00236 2.59622 353 ft 2 kts 356°
2026-05-08 10:56 49.00270 2.59618 357 ft 7 kts 355°
2026-05-08 10:56 49.00311 2.59652 355 ft 8 kts 68°
2026-05-08 10:57 49.00319 2.59739 353 ft 9 kts 85°
2026-05-08 10:57 49.00325 2.59844 353 ft 11 kts 85°
2026-05-08 10:57 49.00338 2.60106 355 ft 14 kts 86°
2026-05-08 10:58 49.00382 2.60199 353 ft 12 kts 360°
2026-05-08 10:58 49.00414 2.60174 355 ft 7 kts 290°
2026-05-08 10:58 49.00412 2.60117 353 ft 0 kts 267°